Location: Sedan
(39.2354°N, 78.5718°W)
Time: 22:35:58
(UTC+00:00)

ISS - Pass Details

Date: 04 December 2021
Orbit: 413 x 422 km, 51.6° (Epoch: 25 January)

Event Time Altitude Azimuth Distance (km) Brightness Sun altitude
Rises 23:49:11 0° 313° (NW) 2,382 0.6 -22.2°
Reaches altitude 10° 23:51:23 10° 321° (NW) 1,512 -0.6 -22.7°
Enters shadow 23:52:39 20° 332° (NNW) 1,056 -1.6 -22.9°
